This demonstration page uses our WeatherBlox Daily Observations layout. Learn more.

Left ArrowRight Arrow

36.19886, -115.1175

Hourly Observations for June 2, 2015

Temp ( °F °C ) Dew Point ( °F °C ) Humidity (%) Winds ( mph kmh ) Pressure ( in mb ) Visibility ( mi km ) Precip ( " mm )
12:53 am 00:53 Clear 80 26.7 28 -2.2 15 15 SSW 17 28 29.77 1008 10 16 0.00 0.00
1:53 am 01:53 Clear 78 25.6 32 0 19 19 S 20 31 29.78 1008 10 16 0.00 0.00
2:53 am 02:53 Clear 76 24.4 32 0 20 20 VRB 5 7 29.78 1009 10 16 0.00 0.00
3:53 am 03:53 Clear 74 23.3 31 -0.6 20 20 SW 7 11 29.80 1009 10 16 0.00 0.00
4:53 am 04:53 Clear 73 22.8 31 -0.6 21 21 SSW 12 19 29.81 1010 10 16 0.00 0.00
5:53 am 05:53 Sunny 71 21.7 31 -0.6 23 23 W 7 11 29.83 1010 10 16 0.00 0.00
6:53 am 06:53 Sunny 70 21.1 33 0.6 26 26 N 6 9 29.85 1011 10 16 0.00 0.00
7:53 am 07:53 Sunny 75 23.9 31 -0.6 20 20 NE 6 9 29.86 1011 10 16 0.00 0.00
8:53 am 08:53 Sunny 78 25.6 30 -1.1 17 17 Calm 29.87 1012 10 16 0.00 0.00
9:53 am 09:53 Sunny 80 26.7 26 -3.3 14 14 VRB 3 6 29.87 1012 10 16 0.00 0.00
10:53 am 10:53 Sunny 83 28.3 25 -3.9 12 12 ENE 3 6 29.86 1011 10 16 0.00 0.00
11:53 am 11:53 Sunny 86 30 23 -5 10 10 VRB 5 7 29.85 1011 10 16 0.00 0.00
12:53 pm 12:53 Sunny 88 31.1 18 -7.8 7 7 VRB 6 9 29.83 1010 10 16 0.00 0.00
1:53 pm 13:53 Sunny 91 32.8 10 -12.2 5 5 S 6 9 29.79 1009 10 16 0.00 0.00
2:53 pm 14:53 Sunny 93 33.9 4 -15.6 3 3 S 9 15 29.77 1008 10 16 0.00 0.00
3:53 pm 15:53 Sunny 94 34.4 12 -11.1 5 5 SSE 9 15 29.75 1007 10 16 0.00 0.00
4:53 pm 16:53 Sunny 94 34.4 10 -12.2 4 4 SW 12 19 29.72 1007 10 16 0.00 0.00
5:53 pm 17:53 Sunny 93 33.9 13 -10.6 5 5 SSW 12 19 29.72 1007 10 16 0.00 0.00
6:53 pm 18:53 Sunny 92 33.3 11 -11.7 5 5 SSW 16 26 29.72 1006 10 16 0.00 0.00
7:53 pm 19:53 Sunny 89 31.7 16 -8.9 7 7 SSW 13 20 29.72 1007 10 16 0.00 0.00
8:53 pm 20:53 Clear 87 30.6 19 -7.2 8 8 SSW 9 15 29.73 1007 10 16 0.00 0.00
9:53 pm 21:53 Clear 85 29.4 21 -6.1 9 9 S 10 17 29.74 1007 10 16 0.00 0.00
10:53 pm 22:53 Clear 83 28.3 22 -5.6 10 10 S 10 17 29.73 1007 10 16 0.00 0.00
11:53 pm 23:53 Clear 81 27.2 23 -5 12 12 W 5 7 29.73 1007 10 16 0.00 0.00

Powered by AerisWeather